DELTA 1 R/B

基本信息
目录编号:
13778
目录名称:
DELTA 1 R/B
国际标识:
1983-004B
轨道中心:
EARTH
物体状态:
在轨
发射日期:
1983-01-26 UTC
国别:
美国 (US)
轨道信息
数据来源: 国际轨道数据
星历时间: 2026-07-14T11:22:40+0800
半长轴: 7238.474km
偏心率: 0.0020613
轨道倾角: 100.062°
近地点辐角: 205.795°
升交点赤经: 250.870°
平近点角: 154.219°
近地点: 845.416km
远地点: 875.258km
周期: 102.148分钟
每日圈数: 14.097181
详细信息
发射场:
AFWTR
轨道高度:
LEO
数据来源:
AOE Integration Group
参考系:
TEME
时间系统:
UTC
历元类型:
SGP4
2D轨道图
3D轨道图
轨道高度分析图
轨道倾角分析图
轨道综合分析图
查看轨道综合分析图